OneWeb SL0309

operational
NORAD ID: 49095 Int'l Des: 2021-075 Owner: ONEWEBN Country: UK Constellation: oneweb
LEOCIRCULARPOLARONEWEB_TYPE

Über OneWeb SL0309

Beschreibung wird geladen...

Live-Position

3D-Globus wird geladen...

Nächste Überflüge

Höhenverlauf

Altitude vs Time

uPlot chart will show altitude changes over time

Zweizeiliger Elementsatz

1 49095U 21075W 26033.45419431 .00000000 00000-0 -33030-4 0 9991
2 49095 87.9104 32.6286 0001963 101.7101 258.4251 13.17647849215831
Epoch: 2. Feb. 2026 • Age: 17 hours

Aktueller Status

Höhe 1206.0 km
Geschwindigkeit 7.26 km/s
Subsatellitenpunkt 84.26°N, 1.21°E
Startdatum 21. Aug. 2021
Alter 4.4 years
Typ internet

Technische Details

Klassifizierung Payload
Masse 148.00 kg
Trockenmasse 140.00 kg
Gesamtmasse 148.00 kg
Länge 1.30 m
Durchmesser 1.00 m
Spannweite 5.00 m
Form Trapezoid+2 pan
Hersteller ONEWUS
Bus-Typ ARROW
Phasenstatus In Orbit
Besitzer/Staat ONEWEBN/UK

Große Konstellationen

Loading constellations...